Hourly Data Report for May 12, 2021

DRYDEN REGIONAL
ONTARIO
Current Station Operator: NAVCAN

49°49'39.000" N
92°44'39.000" W
412.70 m
6032125
71527
YHD

Download Data

Hourly Data (May 2021)
Hourly Data Report for May 12, 2021
TIME
LST
Temp Definition
°C
Dew Point Definition
°C
Rel Hum Definition
%
Precip. Amount Definition
mm

Wind Dir Definition
10's deg

Wind Spd Definition
km/h
Visibility Definition
km
Stn Press Definition
kPa
Hmdx Definition


Wind Chill Definition


Weather Definition


00:00 6.9 -2.5 51 0.0 19 11 16.1 97.72     LegendNANA
01:00 6.3 -1.8 56 0.0 18 13 16.1 97.72     LegendNANA
02:00 5.4 -2.0 59 0.0 19 13 16.1 97.71     LegendNANA
03:00 5.7 -2.4 56 0.0 18 15 16.1 97.71     LegendNANA
04:00 5.0 -2.6 58 0.0 19 15 16.1 97.73     LegendNANA
05:00 5.1 -2.5 58 0.0 19 13 16.1 97.76     LegendNANA
06:00 6.8 -2.1 53 0.0 18 13 16.1 97.78     LegendNANA
07:00 9.0 -1.2 49 0.0 20 15 16.1 97.79     LegendNANA
08:00 12.2 -1.9 37 0.0 23 9 16.1 97.78     LegendNANA
09:00 14.8 -3.6 28 0.0 25 13 16.1 97.74     LegendNANA
10:00 16.6 -4.2 24 0.0 LegendMM 9 16.1 97.71     LegendNANA
11:00 17.8 -7.0 18 0.0 24 26 16.1 97.70     LegendNANA
12:00 18.7 -6.0 18 0.0 25 18 16.1 97.65     LegendNANA
13:00 18.2 -6.4 18 0.0 23 9 16.1 97.62     LegendNANA
14:00 19.2 -5.6 18 0.0 29 21 16.1 97.59     LegendNANA
15:00 19.8 -6.7 16 0.0 26 22 16.1 97.55     LegendNANA
16:00 19.7 -5.9 17 0.0 25 30 16.1 97.52     LegendNANA
17:00 19.4 -6.2 17 0.0 23 21 16.1 97.50     LegendNANA
18:00 18.7 -6.0 18 0.0 26 18 16.1 97.46     LegendNANA
19:00 17.6 -5.6 20 0.0 25 13 16.1 97.44     LegendNANA
20:00 15.4 -5.0 24 0.0 21 9 16.1 97.45     LegendNANA
21:00 14.2 -4.5 27 0.0 21 11 16.1 97.47     LegendNANA
22:00 12.4 -2.2 36 0.0 19 11 16.1 97.46     LegendNANA
23:00 11.4 -1.4 41 0.0 19 11 16.1 97.47     LegendNANA

Notes on Data Quality.

Legend

  • E = Estimated
  • M = Missing
  • NA = Not Available*
  • [empty] = Indicates an unobserved value
Date modified: